99P/Kowal 1 (2022)

Japanese version
Home page
Updated on October 22, 2022

---------------------------------------------------------------------

* Profile

* Pictures

* Orbital Elements

Epoch 2022 Aug. 9.0 TT = JDT 2459800.5
T 2022 Apr. 12.34027 TT                                 Rudenko
q   4.7060546            (2000.0)            P               Q
n   0.06535575     Peri.  174.90130     -0.92036589     +0.38943052
a   6.1039859      Node    28.10148     -0.36141103     -0.81223663
e   0.2290194      Incl.    4.33982     -0.14936093     -0.43429890
P  15.1
From 1436 observations 1977 Apr. 25-2022 Aug. 19, mean residual 0".6.

* Finding Charts

* Magnitudes Graph

        m1 = 0.7 + 5 log d + 20.0 log r

---------------------------------------------------------------------

The orbital elements are published on M.P.E.C. 2022-R68.
The charts are made with StellaNavigator Ver.10 (AstroArts).
The magnitudes graphs are made with Comet for Windows.

---------------------------------------------------------------------

Copyright(C) Seiichi Yoshida (comet@aerith.net). All rights reserved.